Weather observations for the past three days for
Louisiana Regional Airport
Imperial (Metric)
Date Time (cdt) Wind (mph) Vis. (mi.) Weather Sky Cond. Temperature (ºF) Relative Humidity Wind Chill (°F) Heat Index (°F) Pressure Precipitation (in)
Air Dwpt 6 hour altimeter (in) sea level (mb) 1 hr 3 hr 6 hr
Max. Min.
17 14:35 N 6 10.00 Light Rain SCT013 BKN050 OVC100 76.1 73.8 93% 76 30.05 0.0 0.03
17 14:15 N 10 7.00 Rain SCT017 BKN048 OVC060 76.8 72.3 86% 78 30.06 0.0 0.01
17 13:55 NW 16 G 23 10.00 Mostly Cloudy SCT025 SCT034 BKN039 82.8 72.9 72% 88 30.04 0.0
17 13:35 W 9 10.00 Partly Cloudy SCT034 92.5 78.3 63% 108 30.01 0.0
17 13:15 W 6 10.00 Fair CLR 91.8 75.2 58% 103 30.02 0.0
17 12:55 W 5 10.00 Mostly Cloudy SCT032 SCT040 BKN100 90.3 77.2 93 78.4 65% 104 30.03 0.0
17 12:35 S 8 10.00 Partly Cloudy SCT032 SCT060 92.3 77.5 62% 107 30.03 0.0
17 12:15 SW 6 10.00 Partly Cloudy SCT032 SCT038 SCT060 91.8 77.7 64% 107 30.03 0.0
17 11:55 SW 5 10.00 Partly Cloudy SCT032 SCT095 90.5 77.5 66% 105 30.03 0.0
17 11:35 W 3 10.00 Partly Cloudy SCT026 90.7 76.5 63% 103 30.04 0.0
17 11:15 SW 5 10.00 Thunderstorm in Vicinity SCT026 SCT031 90.7 77.9 66% 105 30.05 0.0
17 10:55 S 5 10.00 Partly Cloudy SCT022 SCT028 88.7 78.1 71% 103 30.05 0.0
17 10:35 SW 8 10.00 Fair CLR 89.4 79.2 72% 105 30.05 0.0
17 10:15 SW 5 10.00 Partly Cloudy SCT060 SCT070 87.8 79.2 76% 103 30.04 0.0
17 09:55 Calm 10.00 Mostly Cloudy SCT060 BKN070 86.5 79.2 79% 101 30.05 0.0
17 09:35 S 6 10.00 Partly Cloudy SCT031 SCT040 SCT047 86 79.9 82% 101 30.05 0.0
17 09:15 S 3 10.00 Mostly Cloudy SCT027 SCT034 BKN046 84.7 79.7 85% 98 30.05 0.0
17 08:55 S 3 10.00 Fair CLR 84.2 79.3 85% 97 30.04 0.0
17 08:15 S 3 10.00 Thunderstorm in Vicinity SCT060 83.3 79.2 87% 95 30.05 0.0
17 07:55 Calm 10.00 Thunderstorm SCT034 SCT040 SCT047 82.4 79.3 91% 93 30.04 0.0
17 07:35 Calm 10.00 Thunderstorm SCT034 SCT042 80.2 79.3 97% 88 30.05 0.0
17 07:15 Calm 10.00 Thunderstorm in Vicinity CLR 79 77.9 97% 83 30.03 0.0
17 06:55 Calm 10.00 Fair CLR 78.4 77.4 80.8 77.2 97% 82 30.02 0.0
17 06:35 Calm 10.00 Fair CLR 78.3 77.2 97% 81 30.02 0.0
17 06:15 Calm 10.00 Thunderstorm in Vicinity SCT028 SCT050 SCT070 78.1 77.2 97% 81 30.01 0.0
17 05:55 Calm 10.00 Thunderstorm in Vicinity SCT030 SCT038 SCT050 77.4 76.5 97% 79 30.01 0.0
17 05:35 Calm 10.00 Fair CLR 77.2 76.3 97% 78 30 0.0
17 05:15 Calm 10.00 Fair CLR 77.5 76.5 96% 79 29.99 0.0
17 04:55 Calm 10.00 Fair CLR 77.5 76.6 97% 79 29.99 0.0
17 04:35 Calm 10.00 Thunderstorm in Vicinity CLR 77.7 76.6 97% 80 29.98 0.0
17 04:15 Calm 10.00 Thunderstorm in Vicinity CLR 77.2 76.5 98% 78 29.98 0.0
17 03:35 Calm 10.00 Fair CLR 77.9 77 97% 80 29.98 0.0
17 03:15 Calm 10.00 Fair CLR 77.9 76.6 96% 80 29.98 0.0
17 02:55 Calm 10.00 Fair CLR 78.3 76.8 95% 81 29.98 0.0
17 02:35 Calm 10.00 Fair CLR 79.5 76.6 91% 84 29.98 0.0
17 02:15 Calm 10.00 Fair CLR 79 76.1 91% 83 29.99 0.0
17 01:55 Calm 10.00 Fair CLR 80.1 76.5 89% 86 29.99 0.0
17 01:35 Calm 10.00 Fair CLR 80.8 76.6 87% 87 29.99 0.0
17 01:15 Calm 10.00 Fair CLR 79.7 76.5 90% 85 29.99 0.0
17 00:55 Calm 10.00 Fair CLR 79.9 77 90.7 79.9 91% 85 29.99 0.0
17 00:35 Calm 10.00 Fair CLR 80.6 77 89% 87 29.98 0.0
17 00:15 Calm 10.00 Fair CLR 81 77 88% 88 29.99 0.0
16 23:55 S 3 10.00 Fair CLR 81.1 76.6 86% 88 30 0.0
16 23:35 SW 3 10.00 Fair CLR 81 77 88% 88 30 0.0
16 23:15 Calm 10.00 Fair CLR 81.9 77 85% 90 29.99 0.0
16 22:55 Calm 10.00 Fair CLR 81.9 77 85% 90 30 0.0
16 22:35 Calm 10.00 Fair CLR 82.6 77 83% 91 29.99 0.0
16 22:15 S 3 10.00 Fair CLR 82.9 76.8 82% 92 29.99 0.0
16 21:55 Calm 10.00 Fair CLR 84.2 76.6 78% 94 30 0.0
16 21:35 Calm 10.00 Fair CLR 84.7 77 78% 95 29.99 0.0
16 21:15 SE 5 10.00 Fair CLR 84.9 77.5 79% 96 29.99 0.0
16 20:55 S 3 10.00 Fair CLR 84.7 77.5 79% 96 29.99 0.0
16 20:35 S 6 10.00 Fair CLR 85.3 77.2 77% 96 29.98 0.0
16 20:15 S 3 10.00 Fair CLR 86.2 76.6 73% 97 29.97 0.0
16 19:35 SW 5 10.00 Fair CLR 89.1 77.4 68% 102 29.97 0.0
16 19:15 S 5 10.00 Fair CLR 90.1 77.4 66% 104 29.96 0.0
16 18:55 Calm 10.00 Fair CLR 90.5 77.5 92.5 88 66% 105 29.97 0.0
16 18:35 E 5 10.00 Partly Cloudy SCT060 90.5 76.6 64% 103 29.97 0.0
16 18:15 SE 8 10.00 Partly Cloudy SCT028 SCT034 SCT049 90 76.3 64% 102 29.98 0.0
16 17:55 S 6 10.00 Fair CLR 91.4 78.3 66% 107 29.98 0.0
16 17:35 W 5 10.00 Partly Cloudy SCT050 SCT065 91.2 78.8 67% 107 29.98 0.0
16 17:15 Calm 10.00 Thunderstorm in Vicinity SCT046 BKN050 BKN075 89.1 78.8 72% 104 29.98 0.0
16 16:55 W 3 10.00 Light Rain BKN044 88.3 78.4 73% 103 29.99 0.0
16 16:35 SW 5 10.00 Partly Cloudy SCT042 90 77.5 67% 104 29.99 0.0
16 16:15 S 3 10.00 Partly Cloudy SCT035 90 77.2 66% 103 29.99 0.0
16 15:55 S 5 10.00 Partly Cloudy SCT035 90.9 76.3 62% 103 29.98 0.0
16 15:35 S 3 10.00 Fair CLR 92.5 76.5 60% 106 29.99 0.0
16 15:15 Calm 10.00 Fair CLR 92.1 75.9 59% 104 30 0.0
16 14:55 SW 5 10.00 Partly Cloudy SCT033 92.1 75.2 58% 104 30.01 0.0
16 14:35 Calm 10.00 Partly Cloudy SCT030 91.8 77.2 62% 106 30 0.0
16 14:15 S 6 10.00 Fair CLR 91.2 78.3 66% 107 30.01 0.0
16 13:55 SW 5 10.00 Fair CLR 89.8 77.4 67% 103 30.01 0.0
16 13:35 Calm 10.00 Fair CLR 89.6 77 67% 103 30.01 0.0
16 13:15 SW 5 10.00 Partly Cloudy SCT034 SCT048 SCT055 88.9 77.9 70% 103 30.02 0.0
16 13:00 W 5 10.00 Light Rain BKN034 90.3 76.6 64% 103 30.03 0.0
16 12:35 Calm 10.00 Fair CLR 90.7 77 64% 104 30.03 0.0
16 12:15 S 3 10.00 Fair CLR 89.1 77.4 68% 102 30.03 0.0
16 11:55 Calm 10.00 Fair CLR 87.8 77.4 71% 100 30.04 0.0
16 11:35 Calm 10.00 Fair CLR 87.4 77.9 73% 101 30.04 0.0
16 11:15 Calm 10.00 Fair CLR 88 77 70% 100 30.03 0.0
16 10:55 W 3 10.00 Partly Cloudy SCT032 SCT040 SCT046 88.7 77.4 69% 102 30.03 0.0
16 10:35 W 3 10.00 Partly Cloudy SCT029 SCT034 90.5 76.5 63% 103 30.04 0.0
16 10:15 Calm 10.00 Fair CLR 89.8 76.5 65% 102 30.04 0.0
16 09:55 Calm 10.00 Partly Cloudy SCT034 89.1 77.2 68% 102 30.04 0.0
16 09:35 Calm 10.00 Fair CLR 88.3 77.2 70% 101 30.04 0.0
16 09:15 Calm 0.00 NULL NULL 87.6 78.3 74% 101 30.03 0.0
16 08:55 SW 3 10.00 Fair CLR 86.4 78.1 76% 99 30.04 0.0
16 08:35 Calm 10.00 NULL NULL 84.9 78.8 82% 97 30.04 0.0
16 08:15 Calm 10.00 Fair CLR 83.3 78.1 84% 94 30.04 0.0
16 07:55 Calm 10.00 Fair CLR 83.1 78.8 87% 94 30.03 0.0
16 07:15 Calm 10.00 Partly Cloudy SCT032 SCT038 80.1 79.2 97% 87 30.02 0.0
16 07:00 Calm 10.00 Mostly Cloudy BKN032 BKN040 79.5 78.8 98% 85 30.01 0.0
16 06:35 Calm 10.00 Overcast BKN030 OVC040 78.4 77.9 98% 82 30.01 0.0
16 06:15 Calm 10.00 Overcast BKN032 OVC038 77.9 77.4 98% 80 30.01 0.0
16 05:55 Calm 10.00 Overcast OVC030 77.9 77.4 98% 80 30.01 0.0
16 05:35 Calm 10.00 Partly Cloudy SCT028 SCT034 77.5 76.6 97% 79 30.01 0.0
16 05:15 Calm 10.00 Fair CLR 77.5 76.6 97% 79 30.01 0.0
16 04:55 Calm 10.00 Partly Cloudy SCT035 77.9 77.2 98% 80 30 0.0
16 04:35 Calm 10.00 Partly Cloudy SCT035 SCT040 77.4 76.5 97% 79 30 0.0
16 04:15 Calm 10.00 Mostly Cloudy BKN033 77.5 77 98% 79 30.01 0.0
16 03:55 Calm 10.00 Partly Cloudy SCT035 77.4 76.6 98% 79 30 0.0
16 03:35 Calm 10.00 Fair CLR 77 76.3 98% 78 30.01 0.0
16 03:15 Calm 10.00 Fair CLR 77.2 76.5 98% 78 30.01 0.0
16 02:55 Calm 10.00 Fair CLR 77.2 76.3 97% 78 30 0.0
16 02:35 Calm 10.00 Fair CLR 77.4 76.3 96% 79 30 0.0
16 02:15 Calm 10.00 Fair CLR 77.2 76.1 96% 78 30.01 0.0
16 01:55 Calm 10.00 Fair CLR 78.3 76.5 94% 81 30.01 0.0
16 01:35 Calm 10.00 Fair CLR 78.8 76.1 91% 83 30.01 0.0
16 01:15 Calm 10.00 Fair CLR 78.8 75.6 90% 82 30.01 0.0
16 00:55 S 3 10.00 Fair CLR 79.2 76.6 88.2 78.1 92% 84 30.01 0.0
16 00:35 S 3 10.00 Fair CLR 78.6 76.6 94% 82 30.01 0.0
16 00:15 Calm 10.00 Fair CLR 78.8 76.1 91% 83 30.01 0.0
15 23:55 Calm 10.00 Fair CLR 79.2 76.6 92% 84 30 0.0
15 23:35 Calm 10.00 Fair CLR 78.4 76.1 93% 82 30 0.0
15 23:15 Calm 10.00 Fair CLR 78.8 75.9 91% 83 30 0.0
15 22:55 Calm 10.00 Fair CLR 79 75.6 89% 83 30 0.0
15 22:35 Calm 10.00 Fair CLR 80.2 75.7 86% 86 29.99 0.0
15 22:15 SW 3 10.00 Fair CLR 79.2 76.5 91% 84 29.99 0.0
15 21:55 Calm 10.00 Fair CLR 79.7 76.3 89% 85 29.99 0.0
15 21:35 Calm 10.00 Fair CLR 80.1 77 90% 86 29.98 0.0
15 21:15 Calm 10.00 Fair CLR 81.1 77 87% 88 29.99 0.0
15 20:55 Calm 10.00 Fair CLR 82.4 76.6 83% 91 29.99 0.0
15 20:35 Calm 10.00 Fair CLR 82.2 77.4 85% 91 29.99 0.0
15 20:15 Calm 10.00 Fair CLR 82.9 77.9 85% 93 29.99 0.0
15 19:55 Calm 10.00 Fair CLR 84.6 77.4 79% 95 29.98 0.0
15 19:35 Calm 10.00 Fair CLR 86 76.3 73% 96 29.99 0.0
15 19:15 Calm 10.00 Fair CLR 87.1 76.1 70% 98 29.99 0.0
15 18:55 S 6 10.00 Fair CLR 88.2 75.7 93.7 81.9 67% 99 29.98 0.0
15 18:35 SW 6 10.00 Fair CLR 88.9 73.9 61% 98 29.99 0.0
15 18:15 S 8 10.00 Fair CLR 88.7 72.9 60% 96 29.99 0.0
15 17:55 SW 3 10.00 Fair CLR 88 73.6 62% 96 30 0.0
15 17:35 Calm 10.00 Fair CLR 86.7 72.3 62% 93 30 0.0
15 17:15 SW 5 10.00 Fair CLR 86.4 72.1 63% 93 30.01 0.0
15 16:55 Calm 10.00 Fair CLR 84.6 71.8 66% 90 29.99 0.0
15 16:35 S 5 10.00 Fair CLR 84.2 71.2 65% 89 29.98 0.0
15 16:15 Calm 10.00 Fair CLR 83.5 72.1 69% 89 30.01 0.0
15 15:55 S 5 10.00 Fair CLR 81.9 71.8 72% 87 30 0.0
15 15:35 S 6 10.00 Thunderstorm CLR 82.9 73 72% 89 30.03 0.0
15 15:20 SW 6 G 9 10.00 Thunderstorm CLR 84.4 75.4 74% 93 30.05 0.0
15 14:55 SW 14 10.00 Thunderstorm CLR 89.6 75.9 64% 101 30.05 0.0
15 14:35 S 6 10.00 Fair CLR 91 75.9 61% 103 30.05 0.0
15 14:20 S 6 10.00 Thunderstorm in Vicinity CLR 92.5 75.7 58% 105 30.05 0.0
15 13:55 Calm 10.00 Fair CLR 93.2 73.9 54% 103 30.04 0.0
15 13:35 Calm 0.00 NULL NULL 92.7 74.8 56% 104 0 0.0
15 13:15 Calm 10.00 Partly Cloudy SCT041 92.8 73.2 53% 102 30.06 0.0
15 13:00 Calm 10.00 Partly Cloudy SCT041 93 74.8 56% 104 30.06 0.0
15 12:35 Calm 10.00 Partly Cloudy SCT037 91.8 75.4 59% 103 30.07 0.0
15 12:15 Calm 10.00 Partly Cloudy SCT037 91.8 76.1 60% 104 30.08 0.0
15 11:55 Calm 10.00 Partly Cloudy SCT033 SCT042 SCT100 90 77.2 66% 103 30.08 0.0
15 11:35 Calm 10.00 Mostly Cloudy SCT033 BKN042 BKN100 88.7 77.2 69% 101 30.09 0.0
15 11:15 NW 5 10.00 Fair CLR 90.9 75.6 61% 102 30.1 0.0
15 10:55 NE 5 10.00 Partly Cloudy SCT028 90.1 76.5 64% 103 30.1 0.0
15 10:35 N 3 10.00 Fair CLR 89.6 77.4 67% 103 30.09 0.0
15 10:15 NW 6 10.00 Fair CLR 89.1 77.5 69% 102 30.1 0.0
15 09:55 N 5 10.00 Fair CLR 88.3 76.8 69% 100 30.1 0.0
15 09:35 N 5 10.00 Fair CLR 87.3 76.8 71% 99 30.1 0.0
15 09:15 N 5 10.00 Fair CLR 87.6 77.7 73% 101 30.11 0.0
15 08:55 N 5 10.00 Fair CLR 85.3 77.4 77% 96 30.11 0.0
15 08:35 NW 5 10.00 Fair CLR 85.1 77.9 79% 97 30.11 0.0
15 08:15 N 5 10.00 Fair CLR 83.7 77.9 83% 94 30.11 0.0
15 07:55 N 3 10.00 Fair CLR 82.2 77.9 87% 91 30.1 0.0
15 07:35 Calm 10.00 Fair CLR 81.3 77.4 88% 89 30.09 0.0
15 07:15 Calm 10.00 Fair CLR 79.2 77.9 96% 84 30.09 0.0
15 06:55 Calm 10.00 Fair CLR 77.7 76.8 79.3 76.3 97% 80 30.08 0.0
15 06:35 Calm 10.00 Fair CLR 77 76.3 98% 78 30.07 0.0
15 06:15 Calm 7.00 Fair CLR 76.3 75.6 98% 76 30.06 0.0
15 05:55 Calm 10.00 Fair CLR 76.6 76.1 98% 77 30.06 0.0
15 05:35 Calm 10.00 Fair CLR 77 76.1 97% 78 30.06 0.0
15 05:15 Calm 10.00 Fair CLR 77.2 76.5 98% 78 30.05 0.0
15 04:55 Calm 10.00 Fair CLR 77.2 76.3 97% 78 30.05 0.0
15 04:35 Calm 10.00 Fair CLR 77.9 77.4 98% 80 30.05 0.0
15 04:15 Calm 10.00 Fair CLR 77.4 76.8 98% 79 30.05 0.0
15 03:55 Calm 10.00 Fair CLR 77.2 76.5 98% 78 30.04 0.0
15 03:35 Calm 10.00 Fair CLR 77.4 76.5 97% 79 30.04 0.0
15 03:15 Calm 10.00 Fair CLR 77.9 77 97% 80 30.04 0.0
15 02:55 Calm 10.00 Fair CLR 78.3 77.4 97% 81 30.04 0.0
15 02:35 Calm 10.00 Fair CLR 78.3 77.2 97% 81 30.05 0.0
15 02:15 Calm 10.00 Fair CLR 78.8 77.4 95% 83 30.06 0.0
15 01:55 Calm 10.00 Fair CLR 79 77.9 97% 83 30.06 0.0
15 01:35 Calm 10.00 Fair CLR 79.2 78.4 98% 84 30.07 0.0
15 01:15 Calm 10.00 Fair CLR 79.2 78.3 97% 84 30.09 0.0
15 00:55 Calm 10.00 Fair CLR 79.2 78.3 88.7 79 97% 84 30.09 0.0
15 00:35 Calm 10.00 Fair CLR 79.7 78.6 97% 86 30.1 0.0
15 00:15 Calm 10.00 Fair CLR 79.7 78.4 96% 86 30.1 0.0
14 23:55 Calm 10.00 Fair CLR 80.1 78.6 95% 87 30.1 0.0
14 23:35 Calm 10.00 Fair CLR 80.2 78.4 94% 87 30.1 0.0
14 23:15 Calm 10.00 Fair CLR 80.4 77.9 92% 87 30.09 0.0
14 22:55 Calm 10.00 Fair CLR 80.6 78.4 93% 88 30.09 0.0
14 22:35 Calm 10.00 Fair CLR 81.1 78.3 91% 89 30.08 0.0
14 22:15 Calm 10.00 Fair CLR 81.5 77.9 89% 90 30.07 0.0
14 21:55 Calm 10.00 Fair CLR 83.3 78.3 85% 94 30.07 0.0
14 21:35 Calm 10.00 Fair CLR 82.8 78.1 86% 93 30.07 0.0
14 21:15 Calm 10.00 Fair CLR 83.7 78.1 83% 94 30.07 0.0
14 20:55 Calm 10.00 Fair CLR 85.1 77.9 79% 97 30.07 0.0
14 20:35 W 3 10.00 Fair CLR 85.5 77.9 78% 97 30.07 0.0
14 20:15 Calm 10.00 Fair CLR 86.2 77.5 76% 98 30.07 0.0
14 19:55 W 5 10.00 Fair CLR 86.9 77.5 74% 99 30.06 0.0
14 19:35 W 5 10.00 Fair CLR 87.8 77.4 71% 100 30.06 0.0
14 19:15 W 6 10.00 Fair CLR 87.8 77.4 71% 100 30.06 0.0
14 18:55 W 3 10.00 Fair CLR 88.9 77.4 95 88.9 69% 102 30.06 0.0
14 18:35 W 7 10.00 Fair CLR 89.2 76.8 67% 102 30.06 0.0
14 18:15 W 7 10.00 Fair CLR 90.5 77 65% 104 30.06 0.0
14 17:55 W 8 10.00 Fair CLR 92.1 77 61% 106 30.06 0.0
14 17:15 W 7 10.00 Mostly Cloudy SCT047 BKN050 BKN070 93.6 75.7 56% 106 30.06 0.0
14 16:55 W 5 10.00 Partly Cloudy SCT050 SCT070 92.7 76.6 60% 106 30.06 0.0
14 16:35 SW 6 10.00 Partly Cloudy SCT050 93.2 74.8 55% 104 30.06 0.0
14 16:15 SW 6 10.00 Fair CLR 94.3 74.1 52% 105 30.07 0.0
14 15:55 W 8 10.00 Fair CLR 94.3 73.8 51% 105 30.07 0.0
14 15:35 W 7 10.00 Fair CLR 94.5 73.2 50% 104 30.08 0.0
14 15:15 W 7 10.00 Fair CLR 94.5 72.9 50% 104 30.09 0.0
14 14:55 W 7 10.00 Fair CLR 94.3 72.9 50% 103 30.1 0.0
Date Time (cdt) Wind (mph) Vis. (mi.) Weather Sky Cond. Air Dwpt Max. Min. Relative Humidity Wind Chill (°F) Heat Index (°F) altimeter (in) sea level (mb) 1 hr 3 hr 6 hr
6 hour
Temperature (ºF) Pressure Precipitation (in)